Regional Weather Roundup
Issued by NWS

Home | Current Version | Previous Version | Graphics & Text | Print | Product List | Glossary On
Versions: 1 2 3 4 5 6 7 8 9 10 11 12 13 14 15 16 17 18 19 20 21 22 23 24 25 26 27 28 29 30 31 32 33 34 35 36 37 38 39 40 41 42 43 44 45 46 47 48 49 50
000
ASUS45 KPSR 282210
RWRAZ

ARIZONA REGIONAL HOURLY WEATHER ROUNDUP
NATIONAL WEATHER SERVICE PHOENIX AZ
300 PM MST SAT FEB 28 2015

NOTE: FAIR INDICATES FEW OR NO CLOUDS BELOW 12,000 FEET WITH NO
SIGNIFICANT WEATHER AND/OR OBSTRUCTIONS TO VISIBILITY.

AZZ001>003-036-282300-
NORTHWEST ARIZONA

CITY           SKY/WX    TMP DP  RH WIND       PRES   REMARKS
BULLHEAD CITY  PTSUNNY   72  28  20 S20G26    29.70F
KINGMAN        CLOUDY    56  33  42 S23G29    29.75S
$$

AZZ004>008-015-016-018-282300-
NORTH CENTRAL ARIZONA

CITY           SKY/WX    TMP DP  RH WIND       PRES   REMARKS
GRAND CANYON   FLURRIES  36  31  82 SW22G32   29.77R WCI  25
PRESCOTT       PTSUNNY   53  28  38 SW22G36   29.81S
FLAGSTAFF      LGT SNOW  37  31  78 SW22G33   29.80R WCI  26
PAYSON         RAIN      43  41  93 VRB6      29.88S
PAGE           CLOUDY    46  36  68 CALM      29.72R
$$

AZZ009>014-017-282300-
NORTHEAST ARIZONA

CITY           SKY/WX    TMP DP  RH WIND       PRES   REMARKS
WINSLOW        MOSUNNY   55  35  47 SW33G46   29.77R
SAINT JOHNS    PTSUNNY   52  36  54 SW25G35   29.80F
WINDOW ROCK    PTSUNNY   42  34  73 SW23G31   29.79S
SHOW LOW       LGT RAIN  39  36  87 SW33G45   29.84R WCI  27
$$

AZZ023-282300-
GREATER PHOENIX AREA

CITY           SKY/WX    TMP DP  RH WIND       PRES   REMARKS
PHOENIX        CLOUDY    69  43  38 W10G20    29.79F
BUCKEYE        MOSUNNY   68  41  37 SW17      29.80F
GLENDALE       PTSUNNY   70  43  37 S12G23    29.81F
LUKE AFB       MOSUNNY   68  45  42 SW14      29.78F
DEER VALLEY    CLOUDY    65  43  44 S10       29.80F
SCOTTSDALE     CLOUDY    65  43  44 SW5       29.82F
MESA-FALCON    CLOUDY    63  43  48 SW9       29.81F
MESA-GATEWAY   CLOUDY    66  43  42 SW14      29.84F
CHANDLER       CLOUDY    68  45  42 S21       29.82F
$$

AZZ027-028-282300-
SOUTHWEST MARICOPA COUNTY AND PINAL COUNTY

CITY           SKY/WX    TMP DP  RH WIND       PRES   REMARKS
CASA GRANDE    CLOUDY    66  45  45 SW15      29.83S
GILA BEND      PTSUNNY   71  41  32 SW16G28   29.80F
$$

AZZ503-504-507>509-282300-
SOUTHEAST ARIZONA

CITY           SKY/WX    TMP DP  RH WIND       PRES   REMARKS
TUCSON         CLOUDY    69  42  37 SW7       29.86F
DAVIS-MONTHAN  MOSUNNY   68  43  39 SW10      29.85F
RYAN FIELD       N/A     72  45  37 SW22G33   29.86F
NOGALES        PTSUNNY   69  42  37 S24G32    29.91F
SIERRA VISTA   PTSUNNY   63  38  39 W23G33    29.92R
DOUGLAS        PTSUNNY   66  37  34 SW23G29   29.91R
SAFFORD        PTSUNNY   67  38  34 NW8       29.82S
$$

AZZ020-021-025-026-031-282300-
SOUTHWEST ARIZONA

CITY           SKY/WX    TMP DP  RH WIND       PRES   REMARKS
YUMA           PTSUNNY   74  44  34 W9        29.79F
$$

CAZ031-033-041-043-047-048-061-282300-
SOUTHERN CALIFORNIA

CITY           SKY/WX    TMP DP  RH WIND       PRES   REMARKS
DOWNTOWN L.A.  MOSUNNY   63  46  54 VRB3      29.83F
L.A. AIRPORT   PTSUNNY   60  47  61 SW17      29.84F
SAN DIEGO      PTSUNNY   63  45  51 SW9       29.90F
BURBANK        CLOUDY    59  41  51 S13       29.81F
ONTARIO        PTSUNNY   58  40  51 SW13G18   29.83F
RIVERSIDE      CLOUDY    62  38  40 SW13      29.83F
PALM SPRINGS   MOSUNNY   66  36  32 CALM      29.77F
EL CENTRO NAS  PTSUNNY   71  40  32 SW22G33   29.80F
IMPERIAL       SUNNY     72  40  31 W30G36    29.76F
BLYTHE         MOSUNNY   73  38  27 SW24G30   29.76F
NEEDLES        PTSUNNY   72  27  18 W20G26    29.71F
$$

NVZ020-UTZ003-282300-
SOUTHERN NEVADA-UTAH

CITY           SKY/WX    TMP DP  RH WIND       PRES   REMARKS
LAS VEGAS      MOSUNNY   61  24  24 S23G32    29.65F
SALT LAKE CITY CLOUDY    43  22  43 SE6       29.69R
$$

NMZ009-TXZ055-282300-
NEW MEXICO-WEST TEXAS

CITY           SKY/WX    TMP DP  RH WIND       PRES   REMARKS
ALBUQUERQUE    PTSUNNY   36  27  69 N6        29.91R WCI  31
EL PASO        MOSUNNY   65  27  23 S9        29.89F
$$


........................KEY........................
SKY/WX - SKY CONDITION/WEATHER
TMP    - TEMPERATURE IN FAHRENHEIT
DP     - DEW POINT IN FAHRENHEIT
RH     - RELATIVE HUMIDITY IN PERCENT
WIND   - DIRECTION AND SPEED IN MILES PER HOUR (MPH)
VRB    - VARIABLE WIND DIRECTION
PRES   - MEAN SEA LEVEL PRESSURE IN INCHES OF MERCURY
         F - FALLING PRESSURE   R - RISING PRESSURE
         S - STEADY PRESSURE
VSB    - VISIBILITY IN MILES
HX     - HEAT INDEX IN FAHRENHEIT
WCI    - WIND CHILL INDEX IN FAHRENHEIT
TC     - TEMPERATURE IN CELSIUS WHICH IS ALSO KNOWN AS
         TEMPERATURE IN CENTIGRADE
AFB    - AIR FORCE BASE
         LUKE AFB IS LUKE AIR FORCE BASE
         DAVIS-MONTHAN IS DAVIS-MONTHAN AIR FORCE BASE
NAS    - NAVAL AIR STATION
         EL CENTRO NAS IS EL CENTRO NAVAL AIR STATION
N/A    - NOT AVAILABLE


USA.gov is the U.S. government's official web portal to all federal, state and local government web resources and services.